Tracking 18917 objects as of 16-Jan-2018
HD Live streaming from Space Station
objects crossing your sky now

FENGYUN 1C DEB

Track FENGYUN 1C DEB now!
10-day predictions


NORAD ID: 33649
Int'l Code: 1999-025DEJ
Perigee: 487.8 km
Apogee: 515.5 km
Inclination: 98.9 °
Period: 94.5 minutes
Semi major axis: 6872 km
RCS: 0.0153 m2 (small)
Launch date: May 10, 1999
Source: People's Republic of China (PRC)
Launch site: Taiyaun Space Center, China (TSC)

Note: This is SATELLITE DEBRIS
aabbcc
Your satellite tracking list
Your tracking list is empty




NASA's NSSDC Master Catalog

Two Line Element Set (TLE):
1 33649U 99025DEJ 18016.24971872  .00021970  00000-0  91015-3 0  9994
2 33649  98.9345  30.9061 0020191 277.2103  82.6834 15.23763417549546
Source of the keplerian elements: AFSPC